Hourly Data Report for September 06, 2017

All times are specified in Local Standard Time (LST). Add 1 hour to adjust for Daylight Saving Time where and when it is observed.

WINNIPEG A CS
MANITOBA

49°55'00.000" N
97°14'58.000" W
238.70 m
502S001
71849
XWG

Download Data

Hourly Data (September 2017)
Hourly Data Report for September 6, 2017
Temp Definition
°C
Dew Point Temp Definition
°C
Rel Hum Definition
%
Wind Dir Definition
10's deg

Wind Spd Definition
km/h
Visibility Definition
km
Stn Press Definition
kPa
Hmdx Definition


Wind Chill Definition


Weather Definition


TIME
00:00 4.7 1.7 80 28 12   99.24     LegendNANA
01:00 3.7 0.9 82 28 14   99.25     LegendNANA
02:00 3.1 1.7 90 28 11   99.24     LegendNANA
03:00 3.9 1.9 87 28 9   99.24     LegendNANA
04:00 3.1 1.5 89 27 10   99.26     LegendNANA
05:00 2.8 1.6 92 30 6   99.26     LegendNANA
06:00 2.8 1.1 89 29 8   99.28     LegendNANA
07:00 4.7 2.9 88 28 7   99.29     LegendNANA
08:00 9.4 4.1 69 30 3   99.25     LegendNANA
09:00 14.2 3.9 50 33 4   99.23     LegendNANA
10:00 16.6 3.1 40 35 3   99.21     LegendNANA
11:00 18.4 2.5 35 21 4   99.16     LegendNANA
12:00 18.9 2.7 34 18 6   99.09     LegendNANA
13:00 20.1 2.7 32 27 5   99.01     LegendNANA
14:00 20.1 3.0 32 23 8   98.94     LegendNANA
15:00 20.2 2.6 31 5 8   98.87     LegendNANA
16:00 20.8 2.8 31 20 3   98.82     LegendNANA
17:00 20.6 3.0 31 26 11   98.77     LegendNANA
18:00 19.7 3.4 34 27 8   98.74     LegendNANA
19:00 17.3 4.7 43 20 4   98.72     LegendNANA
20:00 16.6 6.1 50 19 6   98.68     LegendNANA
21:00 16.3 5.7 50 18 12   98.63     LegendNANA
22:00 16.0 5.2 48 18 16   98.57     LegendNANA
23:00 15.4 5.2 50 17 18   98.53     LegendNANA

Notes on Data Quality.

Legend

  • E = Estimated
  • M = Missing
  • NA = Not Available
  • ‡ = Partner data that is not subject to review by the National Climate Archives
Date modified: